Location: Escondido Hill
(38.9119°N, 104.7815°W)
Time: 10:54:20
(UTC-07:00)

ISS - Visible Passes

Search period start: 17 January 2019 00:00
Search period end: 27 January 2019 00:00
Orbit: 404 x 407 km, 51.6° (Epoch: 18 January)

Date Brightness Start Highest point End Pass type
(mag) Time Alt. Az. Time Alt. Az. Time Alt. Az.
19 Jan -1.4 18:33:10 10° SSE 18:33:51 12° SSE 18:33:51 12° SSE visible
20 Jan -1.6 19:15:57 10° SW 19:17:18 23° SW 19:17:18 23° SW visible
21 Jan -3.0 18:24:21 10° SSW 18:27:22 35° SE 18:27:57 32° ESE visible
22 Jan -2.0 17:33:18 10° S 17:35:36 18° SE 17:37:55 10° E visible
22 Jan -2.4 19:08:44 10° WSW 19:11:12 37° WNW 19:11:12 37° WNW visible
23 Jan -3.9 18:16:39 10° SW 18:19:54 84° NW 18:21:40 25° NE visible
24 Jan -1.9 19:02:00 10° W 19:04:39 22° NNW 19:04:45 22° NNW visible
25 Jan -2.6 18:09:31 10° W 18:12:33 35° NNW 18:15:03 14° NNE visible
26 Jan -1.4 18:55:41 10° NW 18:57:32 14° NNW 18:57:58 14° N visible
